Location: Dover
(39.1580°N, 75.5250°W)
Time: 12:26:27
(UTC-05:00)

Daily predictions for brighter satellites

Satellite Brightness Start Highest point End
(mag) Time Altitude Azimuth Time Altitude Azimuth Time Altitude Azimuth
COSMOS 2441 4.4 17:33:52 10° SSE 17:38:38 60° ENE 17:43:24 10° N
CORIOLIS 4.2 17:33:27 10° SSE 17:38:47 81° ENE 17:44:10 10° NNW
SMAP 3.2 17:34:19 10° SSE 17:38:58 86° W 17:43:38 10° NNW
Cosmos 1666 Rocket 4.5 17:40:02 10° SSE 17:43:43 28° E 17:47:28 10° NNE
CENTAUR R/B 4.4 17:39:13 10° W 17:44:13 24° NW 17:49:42 10° NNE
Lacrosse 4 Rocket 2.6 17:48:17 10° N 17:51:23 21° NE 17:54:28 10° ESE
Cosmos 1626 2.7 17:50:14 10° SSE 17:53:42 38° E 17:57:11 10° NNE
USA 229 DEB 4.1 17:50:39 10° S 17:57:06 46° ESE 18:03:40 10° NE
USA 229 4.1 17:50:46 10° S 17:57:13 46° ESE 18:03:45 10° NE
Cosmos 1151 Rocket 4.1 17:55:52 10° NNW 18:00:00 49° W 18:04:09 10° SSW
Resurs 01 Rocket 3.3 17:58:37 10° E 18:00:44 13° ENE 18:02:53 10° NE
Cosmos 2219 Rocket 4.2 17:58:16 10° WSW 18:02:51 25° NW 18:07:27 10° N
Cosmos 2058 3.5 18:00:20 10° SSW 18:04:23 61° W 18:08:27 10° N
Cosmos 1184 Rocket 3.3 18:02:28 10° SSE 18:05:35 37° E 18:08:42 10° NNE
Cosmos 1726 4.1 18:04:57 10° NNW 18:08:23 34° W 18:11:48 10° SSW
Cosmos 2279 Rocket 4.1 18:02:31 10° N 18:08:46 85° W 18:15:01 10° S
Iridium 4 Rocket 4.0 18:06:15 10° SE 18:09:51 25° E 18:13:19 10° NNE
Cosmos 1603 4.2 18:07:27 10° S 18:12:33 36° ESE 18:17:32 10° NE
Cosmos 2333 Rocket 4.1 18:09:02 10° WSW 18:13:43 26° NW 18:18:27 10° N
Cosmos 1461 3.9 18:10:41 10° SW 18:14:40 43° NW 18:18:34 10° NNE
Cosmos 304 Rocket 4.4 18:10:11 10° SSW 18:14:54 57° WNW 18:19:39 10° N
Aureole 1 Rocket 4.0 18:10:06 10° S 18:15:22 57° ESE 18:22:19 10° NNE
FREGAT/IRIS 3.7 18:13:01 10° SE 18:15:33 24° ENE 18:18:06 10° NNE
Cosmos 1470 Rocket 4.5 18:13:17 10° SE 18:16:53 26° E 18:19:50 13° NE
Lacrosse 5 rocket 3.5 18:13:38 10° WNW 18:16:53 26° SW 18:20:17 10° S
DMSP B5D1-3 4.4 18:13:42 10° NNE 18:18:48 71° ESE 18:23:53 10° S
Cosmos 2278 Rocket 4.1 18:14:53 10° NW 18:19:56 34° WSW 18:24:58 10° SSW
Cosmos 1242 Rocket 3.5 18:17:17 10° NNE 18:20:10 24° ENE 18:23:02 10° SE
Tiangong 1 1.9 18:18:52 10° SW 18:21:35 33° SSE 18:22:42 24° ESE
Cosmos 1805 Rocket 3.9 18:17:11 10° SSW 18:21:37 71° W 18:26:05 10° N
Cosmos 1455 2.1 18:17:58 10° N 18:21:45 60° E 18:25:32 10° SSE
Cosmos 1356 Rocket 3.3 18:19:37 10° S 18:23:36 85° W 18:27:37 10° N
SKYMED 2 4.0 18:21:47 10° N 18:26:05 65° WNW 18:30:22 10° SSW
Nadezhda 4 Rocket 3.9 18:20:23 10° S 18:26:37 75° E 18:32:56 10° N
Cosmos 1538 Rocket 4.4 18:25:19 10° SSW 18:30:35 67° WNW 18:35:56 10° NNE
Cosmos 2242 Rocket 3.7 18:26:16 10° N 18:30:36 51° E 18:34:56 10° SSE
Sich 1 3.1 18:27:58 10° S 18:32:24 85° W 18:36:52 10° N
Coronas F rocket 1.0 18:34:53 10° S 18:37:15 76° W 18:37:55 41° N
Cosmos 923 Rocket 3.9 18:33:14 10° S 18:38:22 64° ESE 18:42:58 13° NNE
Cosmos 2237 Rocket 4.5 18:38:41 10° W 18:42:47 20° NW 18:46:55 10° N
SJ-6B 2.8 18:39:20 10° SSE 18:43:23 71° ENE 18:47:31 10° N
Cosmos 1633 Rocket 3.3 18:39:51 10° SSW 18:44:14 71° W 18:48:38 10° N
Cosmos 1680 Rocket 3.6 18:39:20 10° S 18:44:23 54° ESE 18:47:47 21° NE
Cosmos 2369 Rocket 3.0 18:42:11 10° N 18:47:02 28° ENE 18:47:04 28° ENE
NOSS 3-1 (C) 3.8 18:43:02 10° S 18:48:15 38° ESE 18:50:00 31° ENE
Cosmos 1092 Rocket 3.9 18:43:41 10° S 18:50:00 82° E 18:56:23 10° N
SL-16 R/B 3.6 18:46:24 10° SW 18:51:36 37° WNW 18:56:51 10° N
Lacrosse 5 3.9 18:54:06 10° N 18:56:19 13° NNE 18:56:21 13° NNE
USA 215 3.3 18:56:43 30° E 18:59:54 57° NE 19:06:18 10° NW
ALOS 2.2 18:56:34 10° SSE 19:01:09 63° ENE 19:05:47 10° N
Cosmos 1862 Rocket 3.3 19:05:11 10° N 19:09:34 78° E 19:13:54 10° S
FENGYUN 3A 3.5 19:05:31 10° SSE 19:10:51 76° ENE 19:16:15 10° N
BREEZE-M DEB (TANK) 4.2 19:06:58 10° SSW 19:11:20 48° ESE 19:15:10 34° ENE
Cosmos 292 Rocket 4.0 19:06:56 10° SSW 19:11:39 67° WNW 19:14:24 25° N
Cosmos 2195 Rocket 4.3 19:06:07 10° S 19:12:13 80° E 19:18:23 10° N
Genesis I 3.9 19:09:54 10° SSW 19:12:42 43° S 19:12:42 43° S
Cosmos 2112 Rocket 4.0 19:16:01 10° SSW 19:21:13 80° WNW 19:23:17 38° N
Meteor 2-20 Rocket 4.4 19:15:28 10° S 19:21:25 58° E 19:22:00 56° ENE
Cosmos 1943 3.0 19:22:43 10° SSW 19:28:21 75° ESE 19:28:35 74° E
Lacrosse 4 Rocket 3.0 19:26:31 10° NW 19:30:08 32° WSW 19:33:02 14° SSW
ATLAS 5 CENTAUR R/B 3.7 19:26:32 10° NNW 19:29:30 24° N 19:29:30 24° N
Resurs 01 Rocket 2.1 19:32:20 10° S 19:36:43 58° W 19:41:06 10° NNW
Cosmos 1417 Rocket 4.3 19:33:43 10° N 19:39:56 85° E 19:46:03 10° S
H-2A ROCKET BODY 3.5 19:28:18 10° W 19:43:48 37° SSW 19:45:25 32° S
Cosmos 1943 Rocket 4.1 19:43:14 10° N 19:44:32 17° N 19:44:32 17° N
Spot 2 Rocket 4.4 19:46:09 10° S 19:50:59 47° W 19:55:51 10° NNW
Cosmos 1655 Rocket 4.2 19:44:48 10° SSW 19:51:08 69° W 19:57:29 10° N
CZ-4C R/B 4.1 19:52:55 10° NNW 19:56:24 26° N 19:56:24 26° N
NOSS 3-1 (A) 3.8 19:55:41 10° SW 20:00:05 56° SW 20:00:05 56° SW
Cosmos 2369 Rocket 3.9 20:25:55 10° NW 20:28:57 28° WNW 20:28:57 28° WNW
USA 215 4.4 20:44:05 38° WSW 20:44:05 38° WSW 20:49:06 10° WNW
